Time,TemperatureF,DewpointF,PressureIn,WindDirection,WindDirectionDegrees,WindSpeedMPH,WindSpeedGustMPH,Humidity,HourlyPrecipIn,Conditions,Clouds,dailyrainin,SolarRadiationWatts/m^2,SoftwareType,DateUTC
2013-10-31 00:11:00,40.0,31.0,-100.00,NNE,18,4.0,5.0,71,0.00,,,0.00,0.000000,,2013-10-31 07:11:00,
2013-10-31 00:21:00,40.0,31.0,-100.00,NNE,18,4.0,5.0,71,0.00,,,0.00,0.000000,,2013-10-31 07:21:00,
2013-10-31 01:12:00,41.0,32.0,-100.00,NE,35,3.0,5.0,70,0.00,,,0.00,0.000000,,2013-10-31 08:12:00,
2013-10-31 01:22:00,41.0,32.0,-100.00,NE,35,3.0,5.0,70,0.00,,,0.00,0.000000,,2013-10-31 08:22:00,
2013-10-31 01:52:00,42.0,33.0,-100.00,East,82,2.0,4.0,69,0.00,,,-99.99,0.000000,,2013-10-31 08:52:00,
2013-10-31 02:01:00,42.0,33.0,-100.00,East,82,2.0,4.0,69,0.00,,,-99.99,0.000000,,2013-10-31 09:01:00,
2013-10-31 02:11:00,42.0,33.0,-100.00,East,82,2.0,4.0,69,0.00,,,-99.99,0.000000,,2013-10-31 09:11:00,
2013-10-31 02:21:00,42.0,33.0,-100.00,East,82,2.0,4.0,69,0.00,,,-99.99,0.000000,,2013-10-31 09:21:00,
2013-10-31 02:53:00,41.0,32.0,-100.00,ENE,66,1.0,6.0,70,0.00,,,0.00,0.000000,,2013-10-31 09:53:00,
2013-10-31 03:03:00,41.0,32.0,-100.00,ENE,66,1.0,6.0,70,0.00,,,0.00,0.000000,,2013-10-31 10:03:00,
2013-10-31 03:13:00,41.0,32.0,-100.00,ENE,66,1.0,6.0,70,0.00,,,0.00,0.000000,,2013-10-31 10:13:00,
2013-10-31 03:23:00,41.0,32.0,-100.00,ENE,66,1.0,6.0,70,0.00,,,0.00,0.000000,,2013-10-31 10:23:00,
2013-10-31 03:53:00,39.0,31.0,-100.00,NNE,18,4.0,6.0,74,0.00,,,0.00,0.000000,,2013-10-31 10:53:00,
2013-10-31 04:03:00,39.0,31.0,-100.00,NNE,18,4.0,6.0,74,0.00,,,0.00,0.000000,,2013-10-31 11:03:00,
2013-10-31 04:12:00,39.0,31.0,-100.00,NNE,18,4.0,6.0,74,0.00,,,0.00,0.000000,,2013-10-31 11:12:00,
2013-10-31 04:21:00,39.0,31.0,-100.00,NNE,18,4.0,6.0,74,0.00,,,0.00,0.000000,,2013-10-31 11:21:00,
2013-10-31 04:52:00,39.0,32.0,-100.00,NE,37,4.0,10.0,75,0.00,,,0.00,0.000000,,2013-10-31 11:52:00,
2013-10-31 05:01:00,39.0,32.0,-100.00,NE,37,4.0,10.0,75,0.00,,,0.00,0.000000,,2013-10-31 12:01:00,
2013-10-31 05:12:00,39.0,32.0,-100.00,NE,37,4.0,10.0,75,0.00,,,0.00,0.000000,,2013-10-31 12:12:00,
2013-10-31 05:21:00,39.0,32.0,-100.00,NE,37,4.0,10.0,75,0.00,,,0.00,0.000000,,2013-10-31 12:21:00,
2013-10-31 05:52:00,37.0,31.0,-100.00,NNE,24,5.0,7.0,80,0.00,,,0.00,0.000000,,2013-10-31 12:52:00,
2013-10-31 06:01:00,37.0,31.0,-100.00,NNE,24,5.0,7.0,80,0.00,,,0.00,0.000000,,2013-10-31 13:01:00,
2013-10-31 06:11:00,37.0,31.0,-100.00,NNE,24,5.0,7.0,80,0.00,,,0.00,0.000000,,2013-10-31 13:11:00,
2013-10-31 06:22:00,37.0,31.0,-100.00,NNE,24,5.0,7.0,80,0.00,,,0.00,0.000000,,2013-10-31 13:22:00,
2013-10-31 06:52:00,36.0,31.0,-100.00,NNE,21,7.0,8.0,83,0.00,,,0.00,0.000000,,2013-10-31 13:52:00,
2013-10-31 07:02:00,36.0,31.0,-100.00,NNE,21,7.0,8.0,83,0.00,,,0.00,0.000000,,2013-10-31 14:02:00,
2013-10-31 07:11:00,36.0,31.0,-100.00,NNE,21,7.0,8.0,83,0.00,,,0.00,0.000000,,2013-10-31 14:11:00,
2013-10-31 07:21:00,36.0,31.0,-100.00,NNE,21,7.0,8.0,83,0.00,,,0.00,0.000000,,2013-10-31 14:21:00,
2013-10-31 07:52:00,38.0,32.0,-100.00,NE,39,5.0,7.0,79,0.00,,,0.00,0.000000,,2013-10-31 14:52:00,
2013-10-31 08:01:00,38.0,32.0,-100.00,NE,39,5.0,7.0,79,0.00,,,0.00,0.000000,,2013-10-31 15:01:00,
2013-10-31 08:11:00,38.0,32.0,-100.00,NE,39,5.0,7.0,79,0.00,,,0.00,0.000000,,2013-10-31 15:11:00,
2013-10-31 08:22:00,38.0,32.0,-100.00,NE,39,5.0,7.0,79,0.00,,,0.00,0.000000,,2013-10-31 15:22:00,
2013-10-31 09:12:00,38.0,33.0,-100.00,NNE,24,6.0,8.0,81,-99.99,,,-99.99,16.000000,,2013-10-31 16:12:00,
2013-10-31 09:22:00,38.0,33.0,-100.00,NNE,24,6.0,8.0,81,-99.99,,,-99.99,16.000000,,2013-10-31 16:22:00,
2013-10-31 09:53:00,45.0,34.0,-100.00,NE,34,7.0,10.0,66,0.00,,,-99.99,188.000000,,2013-10-31 16:53:00,
2013-10-31 10:03:00,45.0,34.0,-100.00,NE,34,7.0,10.0,66,0.00,,,-99.99,188.000000,,2013-10-31 17:03:00,
2013-10-31 10:12:00,45.0,34.0,-100.00,NE,34,7.0,10.0,66,0.00,,,-99.99,188.000000,,2013-10-31 17:12:00,
2013-10-31 10:22:00,45.0,34.0,-100.00,NE,34,7.0,10.0,66,0.00,,,-99.99,188.000000,,2013-10-31 17:22:00,
2013-10-31 10:52:00,51.0,36.0,-100.00,ENE,66,3.0,8.0,57,0.00,,,-99.99,332.000000,,2013-10-31 17:52:00,
2013-10-31 11:02:00,51.0,36.0,-100.00,ENE,66,3.0,8.0,57,0.00,,,-99.99,332.000000,,2013-10-31 18:02:00,
2013-10-31 11:12:00,51.0,36.0,-100.00,ENE,66,3.0,8.0,57,0.00,,,-99.99,332.000000,,2013-10-31 18:12:00,
2013-10-31 11:21:00,51.0,36.0,-100.00,ENE,66,3.0,8.0,57,0.00,,,-99.99,332.000000,,2013-10-31 18:21:00,
2013-10-31 11:52:00,54.0,37.0,-100.00,SW,232,8.0,11.0,52,0.00,,,-99.99,442.000000,,2013-10-31 18:52:00,
2013-10-31 12:01:00,54.0,37.0,-100.00,SW,232,8.0,11.0,52,0.00,,,-99.99,442.000000,,2013-10-31 19:01:00,
2013-10-31 12:11:00,54.0,37.0,-100.00,SW,232,8.0,11.0,52,0.00,,,-99.99,442.000000,,2013-10-31 19:11:00,
2013-10-31 12:21:00,54.0,37.0,-100.00,SW,232,8.0,11.0,52,0.00,,,-99.99,442.000000,,2013-10-31 19:21:00,
2013-10-31 12:52:00,57.0,39.0,-100.00,West,274,6.0,11.0,51,0.00,,,-99.99,505.000000,,2013-10-31 19:52:00,
2013-10-31 13:02:00,57.0,39.0,-100.00,West,274,6.0,11.0,51,0.00,,,-99.99,505.000000,,2013-10-31 20:02:00,
2013-10-31 13:11:00,57.0,39.0,-100.00,West,274,6.0,11.0,51,0.00,,,-99.99,505.000000,,2013-10-31 20:11:00,
2013-10-31 13:22:00,57.0,39.0,-100.00,West,274,6.0,11.0,51,0.00,,,-99.99,505.000000,,2013-10-31 20:22:00,
2013-10-31 13:52:00,63.0,41.0,-100.00,WSW,250,6.0,9.0,45,0.00,,,-99.99,513.000000,,2013-10-31 20:52:00,
2013-10-31 14:02:00,63.0,41.0,-100.00,WSW,250,6.0,9.0,45,0.00,,,-99.99,513.000000,,2013-10-31 21:02:00,
2013-10-31 14:11:00,63.0,41.0,-100.00,WSW,250,6.0,9.0,45,0.00,,,-99.99,513.000000,,2013-10-31 21:11:00,
2013-10-31 14:21:00,63.0,41.0,-100.00,WSW,250,6.0,9.0,45,0.00,,,-99.99,513.000000,,2013-10-31 21:21:00,
2013-10-31 14:54:00,64.0,40.0,-100.00,West,277,9.0,14.0,42,0.00,,,-99.99,463.000000,,2013-10-31 21:54:00,
2013-10-31 15:03:00,64.0,40.0,-100.00,West,277,9.0,14.0,42,0.00,,,-99.99,463.000000,,2013-10-31 22:03:00,
2013-10-31 15:13:00,64.0,40.0,-100.00,West,277,9.0,14.0,42,0.00,,,-99.99,463.000000,,2013-10-31 22:13:00,
2013-10-31 15:24:00,64.0,40.0,-100.00,West,277,9.0,14.0,42,0.00,,,-99.99,463.000000,,2013-10-31 22:24:00,
2013-10-31 15:53:00,66.0,41.0,-100.00,West,275,7.0,13.0,40,0.00,,,-99.99,362.000000,,2013-10-31 22:53:00,
2013-10-31 16:03:00,66.0,41.0,-100.00,West,275,7.0,13.0,40,0.00,,,-99.99,362.000000,,2013-10-31 23:03:00,
2013-10-31 16:12:00,66.0,41.0,-100.00,West,275,7.0,13.0,40,0.00,,,-99.99,362.000000,,2013-10-31 23:12:00,
2013-10-31 16:22:00,66.0,41.0,-100.00,West,275,7.0,13.0,40,0.00,,,-99.99,362.000000,,2013-10-31 23:22:00,
2013-10-31 16:54:00,66.0,40.0,-100.00,West,265,8.0,13.0,39,0.00,,,-99.99,225.000000,,2013-10-31 23:54:00,
2013-10-31 17:01:00,66.0,40.0,-100.00,West,265,8.0,13.0,39,0.00,,,-99.99,225.000000,,2013-11-01 00:01:00,
2013-10-31 17:11:00,66.0,40.0,-100.00,West,265,8.0,13.0,39,0.00,,,-99.99,225.000000,,2013-11-01 00:11:00,
2013-10-31 17:21:00,66.0,40.0,-100.00,West,265,8.0,13.0,39,0.00,,,-99.99,225.000000,,2013-11-01 00:21:00,
2013-10-31 17:52:00,60.0,40.0,-100.00,WNW,290,14.0,19.0,48,0.00,,,-99.99,70.000000,,2013-11-01 00:52:00,
2013-10-31 18:01:00,60.0,40.0,-100.00,WNW,290,14.0,19.0,48,0.00,,,-99.99,70.000000,,2013-11-01 01:01:00,
2013-10-31 18:12:00,60.0,40.0,-100.00,WNW,290,14.0,19.0,48,0.00,,,-99.99,70.000000,,2013-11-01 01:12:00,
2013-10-31 18:22:00,60.0,40.0,-100.00,WNW,290,14.0,19.0,48,0.00,,,-99.99,70.000000,,2013-11-01 01:22:00,
2013-10-31 18:52:00,56.0,41.0,-100.00,WNW,292,15.0,22.0,57,0.00,,,-99.99,3.000000,,2013-11-01 01:52:00,
2013-10-31 19:02:00,56.0,41.0,-100.00,WNW,292,15.0,22.0,57,0.00,,,-99.99,3.000000,,2013-11-01 02:02:00,
2013-10-31 19:11:00,56.0,41.0,-100.00,WNW,292,15.0,22.0,57,0.00,,,-99.99,3.000000,,2013-11-01 02:11:00,
2013-10-31 19:21:00,56.0,41.0,-100.00,WNW,292,15.0,22.0,57,0.00,,,-99.99,3.000000,,2013-11-01 02:21:00,
2013-10-31 19:52:00,53.0,42.0,-100.00,West,271,12.0,20.0,66,0.00,,,-99.99,0.000000,,2013-11-01 02:52:00,
2013-10-31 20:03:00,53.0,42.0,-100.00,West,271,12.0,20.0,66,0.00,,,-99.99,0.000000,,2013-11-01 03:03:00,
2013-10-31 20:11:00,53.0,42.0,-100.00,West,271,12.0,20.0,66,0.00,,,-99.99,0.000000,,2013-11-01 03:11:00,
2013-10-31 20:21:00,53.0,42.0,-100.00,West,271,12.0,20.0,66,0.00,,,-99.99,0.000000,,2013-11-01 03:21:00,
2013-10-31 20:54:00,52.0,42.0,-100.00,WNW,290,12.0,18.0,68,0.00,,,-99.99,0.000000,,2013-11-01 03:54:00,
2013-10-31 21:03:00,52.0,42.0,-100.00,WNW,290,12.0,18.0,68,0.00,,,-99.99,0.000000,,2013-11-01 04:03:00,
2013-10-31 21:13:00,52.0,42.0,-100.00,WNW,290,12.0,18.0,68,0.00,,,-99.99,0.000000,,2013-11-01 04:13:00,
2013-10-31 21:24:00,52.0,42.0,-100.00,WNW,290,12.0,18.0,68,0.00,,,-99.99,0.000000,,2013-11-01 04:24:00,
2013-10-31 22:12:00,46.0,40.0,-100.00,East,97,2.0,13.0,79,0.00,,,-99.99,0.000000,,2013-11-01 05:12:00,
2013-10-31 22:23:00,46.0,40.0,-100.00,East,97,2.0,13.0,79,0.00,,,-99.99,0.000000,,2013-11-01 05:23:00,
2013-10-31 22:53:00,46.0,39.0,-100.00,WNW,292,9.0,11.0,77,0.00,,,-99.99,0.000000,,2013-11-01 05:53:00,
2013-10-31 23:02:00,46.0,39.0,-100.00,WNW,292,9.0,11.0,77,0.00,,,-99.99,0.000000,,2013-11-01 06:02:00,
2013-10-31 23:12:00,46.0,39.0,-100.00,WNW,292,9.0,11.0,77,0.00,,,-99.99,0.000000,,2013-11-01 06:12:00,
2013-10-31 23:21:00,46.0,39.0,-100.00,WNW,292,9.0,11.0,77,0.00,,,-99.99,0.000000,,2013-11-01 06:21:00,
2013-10-31 23:52:00,47.0,39.0,-100.00,WNW,294,9.0,13.0,74,0.00,,,-99.99,0.000000,,2013-11-01 06:52:00,